SCP
0 0 -0 -0 -0 0 0 0 0 0 0 0 0 0 0 0 0 0 0 0 0 0 0 0 0 0 0 0 0 0 0 0 0 0 0 0 0 0 0 0 0 0 0 0 -0
0 0 0 -0 -0 0 0 0 0 0 0 0 0 0 0 0 0 0 0 0 0 0 0 0 0 0 0 0 0 0 0 0 0 0 0 0 0 0 0 0 0 0 0 0 -0
0 0 0 0 -0 -0 0 0 0 0 0 0 0 0 0 0 0 0 0 0 0 0 0 0 0 0 0 0 0 0 0 0 0 0 0 0 0 0 0 0 0 0 0 0 -0
0 0 0 0 -0 -0 0 0 0 0 0 0 0 0 0 0 0 0 0 0 0 0 0 0 0 0 0 0 0 0 0 0 0 0 0 0 0 0 0 0 0 0 0 0 -0
0 0 0 0 -0 -0 0 0 0 0 0 0 0 0 0 0 0 0 0 0 0 0 0 0 0 0 0 0 0 0 0 0 0 0 0 0 0 0 0 0 0 0 0 0 0
0 -0 -0 0 0 -0 0 0 0 0 0 0 0 0 0 0 0 0 0 0 0 0 0 0 0 0 0 0 0 0 0 0 0 0 0 0 0 0 0 0 0 0 0 0 0
0 0 -0 0 0 -0 0 0 0 0 0 0 0 0 0 0 0 0 0 0 0 0 0 0 0 0 0 0 0 0 0 0 0 0 0 0 -0 -0 0 0 0 0 0 0 0
0 0 0 0 -0 0 0 0 0 0 0 0 0 0 0 0 0 0 0 0 0 0 0 0 0 0 0 0 0 0 0 0 0 0 0 0 -0 -0 0 0 0 0 0 0 0
-0 0 0 -0 -0 0 0 0 0 0 1 0 0 0 0 0 0 0 0 0 0 0 0 0 0 0 0 0 0 0 0 0 0 0 0 0 -0 -0 0 0 0 0 0 0 0
-0 0 0 0 0 0 0 0 0 0 1 0 0 0 0 0 0 0 0 0 0 0 0 0 0 0 0 0 0 0 0 0 0 0 0 0 -0 0 0 0 0 0 0 0 0
0 0 0 -0 0 0 0 0 1 1 0 0 0 0 0 0 0 0 0 0 0 0 0 0 0 0 0 0 0 0 0 0 0 0 0 0 -0 0 0 0 -0 0 0 0 0
-0 0 0 0 0 0 0 0 0 0 0 0 0 0 0 0 0 0 0 0 0 0 0 0 0 0 0 0 0 0 0 0 0 0 0 0 -0 0 0 0 -0 0 0 -0 0
-0 0 0 0 0 0 0 0 0 0 0 0 0 0 0 0 0 0 0 0 0 0 0 0 0 0 0 0 0 0 0 0 0 0 0 0 -0 -0 -0 -0 0 0 0 0 0
-0 -0 0 0 0 0 0 0 0 0 0 0 0 0 0 0 0 0 0 0 0 0 0 0 0 0 0 0 0 0 0 0 0 0 0 0 0 0 0 0 0 -0 0 0 0
-0 -0 0 0 0 0 0 0 0 0 0 0 0 0 0 0 0 0 0 0 0 0 0 0 0 0 0 0 0 0 0 0 0 0 0 0 0 -0 0 0 0 0 0 0 0
-0 -0 0 0 0 0 0 0 0 0 0 0 0 0 0 0 0 0 0 0 0 0 0 0 0 0 0 0 0 0 0 0 0 0 0 0 0 -0 0 0 0 0 0 0 0
-0 -0 0 0 0 0 0 0 0 0 0 0 0 0 0 0 0 0 0 0 0 0 0 0 0 0 0 0 0 0 0 0 0 0 0 0 0 0 0 0 0 0 0 0 0
-0 -0 0 0 0 0 0 0 0 0 0 0 0 0 0 0 0 0 0 0 0 0 0 0 0 0 0 0 0 0 0 0 0 0 0 0 0 0 -0 0 0 0 -0 0 0
-0 -0 0 0 0 0 0 0 0 0 0 0 0 0 0 0 0 0 0 0 0 0 0 0 0 0 0 0 0 0 0 0 0 0 0 0 0 -0 0 0 0 0 0 0 0
-0 -0 0 0 0 0 0 0 0 0 0 0 0 0 0 0 0 0 0 0 0 0 0 0 0 0 0 0 0 0 0 0 0 0 0 0 0 0 0 -0 0 0 -0 0 0
-0 -0 0 0 0 0 0 0 0 0 0 0 0 0 0 0 0 0 0 0 0 0 0 0 0 0 0 0 0 0 0 0 0 0 0 0 0 0 -0 -0 -0 0 0 0 0
0 -0 0 0 0 0 0 0 0 0 0 0 0 0 0 0 0 0 0 0 0 0 0 0 0 0 0 0 0 0 0 0 0 0 0 0 0 0 0 0 0 -0 0 0 0
0 -0 0 0 0 0 0 0 0 0 0 0 0 0 0 0 0 0 0 0 0 0 0 0 0 0 0 0 0 0 0 0 0 0 0 0 0 0 0 0 0 0 0 -0 0
0 -0 0 0 0 0 0 0 0 0 0 0 0 0 0 0 0 0 0 0 0 0 0 0 0 0 0 0 0 0 0 0 0 0 0 0 0 0 0 0 0 0 0 0 0
0 -0 0 0 0 0 0 0 0 0 0 0 0 0 0 0 0 0 0 0 0 0 0 0 0 0 0 0 0 0 0 0 0 0 0 0 0 0 0 0 0 0 0 0 -0
0 -0 0 0 0 0 0 0 0 0 0 0 0 0 0 0 0 0 0 0 0 0 0 0 0 0 0 0 0 0 0 0 0 0 0 0 0 0 0 0 0 -0 0 0 0
0 0 0 0 0 0 0 0 0 0 0 0 0 0 0 0 0 0 0 0 0 0 0 0 0 0 0 0 0 0 0 0 0 0 0 0 0 0 0 0 0 0 0 0 0
Wind_Speed_500mb
69 68 68 91 108 78 94 90 86 85 76 73 64 59 77 81 65 61 60 55 45 27 43 43 28 25 22 16 13 13 5 8 11 9 8 8 11 3 7 13 10 15 5 14 40
62 69 67 80 99 97 98 95 81 90 85 80 70 57 59 71 65 66 67 53 51 42 47 46 41 28 16 17 14 12 12 15 6 12 12 6 9 9 9 11 11 13 15 25 44
52 63 66 67 92 117 98 97 83 98 77 76 67 68 63 57 46 46 69 54 45 41 53 42 41 30 11 18 14 11 12 13 13 13 10 10 7 2 7 10 17 23 27 33 51
43 63 68 73 74 91 93 102 86 98 87 74 67 64 66 63 24 38 59 57 56 45 48 51 35 18 13 19 16 9 7 18 19 17 6 7 9 3 11 7 4 17 26 34 55
72 59 59 78 74 83 96 106 90 105 86 77 72 66 69 52 20 31 58 52 56 55 53 50 45 26 19 18 17 9 6 9 12 19 10 7 7 0 21 21 24 19 30 39 51
62 65 80 83 86 93 98 108 92 105 93 83 76 71 68 37 43 21 66 60 52 54 52 48 32 26 12 15 25 13 14 9 11 8 7 12 8 3 12 21 19 24 33 40 50
59 68 79 79 108 103 92 111 96 108 95 87 82 78 54 42 47 33 54 68 56 57 60 54 24 31 21 12 10 11 11 7 13 10 11 11 16 19 28 21 16 23 29 37 44
65 64 74 98 105 110 103 119 105 109 100 96 88 76 31 53 50 41 42 52 52 51 54 48 32 30 7 17 12 17 10 11 11 19 6 9 30 24 24 19 22 25 30 35 41
62 85 83 107 106 107 127 121 105 102 101 94 93 63 22 53 55 54 43 68 52 45 45 50 36 23 17 24 11 15 18 28 15 10 6 17 18 12 19 25 37 32 33 37 40
54 74 49 106 112 115 115 114 101 111 101 101 76 38 34 54 61 63 60 61 52 44 39 29 17 18 20 28 31 26 34 13 21 7 10 12 34 29 24 17 27 28 34 37 43
50 61 61 110 111 116 107 113 103 78 124 48 76 66 62 59 63 57 71 63 50 55 24 25 19 35 41 37 14 16 17 26 9 7 8 24 35 38 40 35 45 42 35 38 46
49 57 48 92 132 122 129 121 138 69 48 57 93 44 73 88 37 65 86 46 45 38 28 17 40 34 28 24 21 19 19 12 6 6 7 26 42 44 45 45 53 59 57 44 46
53 49 38 110 116 123 123 129 120 79 21 23 88 54 71 91 53 64 90 41 53 33 38 35 20 33 32 31 24 24 22 8 6 3 5 16 38 48 36 49 56 61 59 56 54
49 44 7 123 132 122 121 121 100 98 10 20 28 31 56 63 21 62 73 45 19 48 34 13 21 34 35 38 36 26 15 15 10 5 17 1 19 28 27 26 33 50 60 70 71
39 40 27 36 100 134 105 115 118 75 25 25 15 67 63 59 63 44 62 14 41 32 22 21 28 40 41 41 38 14 26 22 10 8 14 21 15 16 11 21 30 46 52 64 72
24 40 35 15 70 127 122 114 95 19 13 17 21 28 37 25 40 46 26 19 27 32 12 13 13 30 31 25 32 37 22 16 9 9 16 27 20 26 24 30 24 24 37 49 69
24 34 26 11 37 121 131 103 22 31 18 17 22 41 48 28 23 44 29 29 20 22 23 10 14 5 23 27 12 23 31 7 7 9 16 3 21 38 15 16 16 21 26 28 37
23 24 23 15 10 113 124 33 24 15 16 10 44 52 33 47 27 38 36 26 12 26 23 21 14 22 10 20 22 20 21 11 14 12 5 2 22 14 16 25 30 34 47 41 44
26 12 26 10 9 103 90 32 12 34 21 35 50 38 28 25 22 27 39 41 25 26 26 29 18 13 17 13 31 12 15 7 7 4 4 13 18 26 25 29 31 28 24 41 46
28 16 14 11 16 27 37 14 12 28 45 59 45 32 39 46 39 49 48 46 41 28 15 20 12 7 9 16 6 29 31 11 8 12 15 17 16 27 3 12 17 31 43 34 37
30 10 15 5 7 6 25 7 19 56 68 49 45 39 41 62 43 58 59 17 42 26 14 20 6 9 22 26 33 21 21 9 14 10 12 12 18 14 28 25 17 17 15 26 26
9 5 13 12 5 3 17 20 27 50 61 14 18 27 50 51 32 40 43 21 52 48 28 8 11 14 40 4 10 32 25 33 14 17 10 8 21 15 13 10 12 21 29 25 47
10 9 6 9 5 3 17 19 30 55 42 23 19 13 44 42 19 28 29 36 69 50 45 21 11 13 11 8 6 28 24 41 21 6 16 14 21 20 37 35 35 33 37 43 39
8 5 8 2 2 3 15 28 32 29 15 12 20 40 44 32 16 31 32 15 53 46 33 37 6 18 25 14 21 27 33 29 36 15 36 26 46 51 40 37 25 25 26 25 38
4 5 6 4 5 4 3 20 49 27 6 24 15 42 36 20 26 26 19 17 25 40 20 21 22 8 3 11 14 16 39 39 44 57 37 52 50 68 59 33 38 42 46 53 55
5 7 6 4 8 6 2 20 62 24 20 32 31 50 34 32 33 31 27 24 23 14 29 11 6 17 7 9 7 5 40 45 53 56 49 56 43 69 56 30 36 38 43 50 59
12 18 12 5 5 3 5 15 35 31 11 18 42 40 16 26 36 51 48 45 39 42 44 28 14 10 12 13 8 21 46 43 39 52 44 50 71 43 42 27 38 43 54 65 78
Wind_Direction_500mb
244 237 240 238 242 228 225 219 220 216 213 216 208 205 205 202 190 196 203 210 208 192 190 192 178 202 194 190 161 137 167 213 206 167 114 152 194 165 178 136 163 192 173 179 179
245 233 234 239 246 243 221 216 220 212 208 212 212 206 194 200 192 199 209 202 205 206 188 185 184 176 169 175 182 193 209 208 197 132 128 126 213 167 187 159 189 197 192 172 180
247 239 234 238 244 236 217 214 219 211 210 208 203 212 184 175 179 203 199 185 181 178 188 181 174 165 137 157 177 193 209 172 170 118 133 126 117 176 210 210 212 217 191 184 184
246 238 235 233 238 240 224 215 216 207 206 200 197 202 190 162 180 192 192 182 186 167 172 182 178 159 146 174 182 177 200 186 156 144 139 120 106 322 246 269 254 237 203 197 193
252 250 259 235 239 231 224 210 209 207 201 196 197 197 187 191 187 174 184 184 173 173 176 177 173 181 180 198 167 203 168 174 151 165 150 126 91 27 274 290 276 263 219 207 201
256 256 258 228 233 228 219 204 207 205 199 195 193 196 195 202 202 161 182 186 181 179 179 182 186 182 194 202 204 193 175 151 180 183 227 258 239 195 253 300 310 246 227 212 210
250 256 251 228 228 222 220 207 203 204 196 194 192 190 186 182 188 163 188 181 186 191 190 195 188 175 169 158 212 138 163 157 186 195 220 194 240 225 246 275 283 249 235 222 215
245 240 262 224 221 213 210 208 199 205 194 192 185 180 187 187 192 189 165 173 188 198 201 195 184 178 165 144 147 188 217 208 174 186 219 210 255 232 228 228 253 253 238 235 225
261 258 284 221 208 204 195 196 195 199 196 187 181 179 175 190 183 184 176 172 175 187 184 191 184 174 140 176 168 193 213 213 214 193 169 224 267 264 241 238 254 241 236 236 234
274 270 263 212 201 195 192 189 193 191 184 186 177 157 173 186 177 178 179 180 162 162 154 171 168 176 190 197 209 192 213 215 214 149 206 230 263 263 253 249 255 257 242 232 237
267 277 235 199 195 190 200 182 169 179 176 172 167 186 167 163 170 171 173 160 161 166 175 179 184 200 188 206 231 198 209 218 154 171 234 245 262 268 264 253 257 255 249 247 242
262 272 195 189 188 191 182 177 181 190 160 184 178 174 160 163 144 168 170 158 167 177 157 160 211 196 191 180 180 170 187 196 199 155 215 272 268 269 262 252 249 254 250 246 253
268 276 280 195 193 185 180 182 178 167 139 175 167 161 158 169 162 163 167 161 172 168 182 182 193 166 175 186 185 206 210 165 252 100 203 291 273 265 254 245 243 243 249 248 242
271 280 344 186 181 184 190 181 171 163 124 167 174 160 155 155 151 164 170 150 178 185 179 212 148 170 185 195 196 202 189 163 141 214 264 34 281 274 272 267 250 247 242 242 243
264 280 257 212 174 175 181 173 166 158 192 162 172 158 159 162 140 179 167 138 168 171 168 175 164 174 185 188 184 195 169 190 191 263 309 230 272 269 263 271 260 254 246 242 242
261 284 280 198 170 180 181 171 159 179 184 146 149 165 145 160 158 149 167 140 152 147 182 154 197 180 193 167 176 139 122 64 60 232 255 248 229 262 255 257 260 263 261 247 242
214 261 263 294 133 179 169 163 178 200 144 149 159 163 142 152 137 160 163 159 155 144 177 140 169 127 158 141 152 155 145 127 180 194 245 332 216 248 267 252 258 273 279 261 260
152 241 267 251 135 171 172 174 193 133 138 159 154 156 147 148 151 163 158 168 201 188 167 165 198 178 173 180 164 163 167 167 207 207 246 134 236 253 229 259 256 269 259 268 275
161 205 284 238 198 170 169 182 146 146 150 139 147 137 137 146 133 149 185 187 176 183 168 184 178 153 180 147 143 142 200 139 92 44 245 216 261 278 234 251 257 258 265 268 267
169 164 296 280 238 194 182 153 118 146 146 150 145 159 155 165 154 178 183 201 185 189 178 165 126 225 167 129 110 179 146 165 203 209 239 234 264 251 208 215 253 254 257 264 287
173 86 309 238 197 176 178 116 131 156 152 159 159 157 171 164 172 182 183 164 180 170 143 158 108 135 163 206 176 153 180 184 171 217 230 263 249 244 232 239 249 270 275 286 298
129 108 297 199 109 79 162 144 145 149 160 102 148 143 167 159 161 177 185 166 170 167 163 172 116 147 187 52 248 201 194 180 189 195 245 294 269 161 213 220 224 252 287 288 303
114 132 181 41 110 134 131 145 151 155 161 152 145 158 170 166 143 179 176 196 177 174 178 172 137 115 151 231 178 218 207 206 219 77 200 201 255 203 236 262 263 261 281 293 298
132 142 132 155 52 351 131 143 149 149 119 96 124 127 141 165 109 181 163 164 183 184 176 155 144 192 190 195 155 200 206 208 212 225 233 224 254 263 257 256 267 289 296 293 302
103 66 129 86 210 191 351 142 153 162 111 137 143 157 153 152 166 172 152 130 174 186 165 170 204 180 131 130 155 191 194 194 202 222 219 237 230 258 255 265 266 273 277 289 289
98 138 109 64 30 111 278 166 163 156 156 177 156 163 159 155 178 155 156 152 161 170 182 195 216 178 153 111 83 212 208 202 211 225 232 246 253 245 274 272 262 260 272 282 287
113 107 107 48 118 246 182 162 173 144 16 148 146 152 148 142 145 153 161 157 163 173 187 182 150 144 214 133 70 271 224 207 212 222 224 234 243 259 273 267 250 259 261 262 267
Wind_Speed_850mb
69 68 68 91 108 78 94 90 86 85 76 73 64 59 77 81 65 61 60 55 45 27 43 43 28 25 22 16 13 13 5 8 11 9 8 8 11 3 7 13 10 15 5 14 40
62 69 67 80 99 97 98 95 81 90 85 80 70 57 59 71 65 66 67 53 51 42 47 46 41 28 16 17 14 12 12 15 6 12 12 6 9 9 9 11 11 13 15 25 44
52 63 66 67 92 117 98 97 83 98 77 76 67 68 63 57 46 46 69 54 45 41 53 42 41 30 11 18 14 11 12 13 13 13 10 10 7 2 7 10 17 23 27 33 51
43 63 68 73 74 91 93 102 86 98 87 74 67 64 66 63 24 38 59 57 56 45 48 51 35 18 13 19 16 9 7 18 19 17 6 7 9 3 11 7 4 17 26 34 55
72 59 59 78 74 83 96 106 90 105 86 77 72 66 69 52 20 31 58 52 56 55 53 50 45 26 19 18 17 9 6 9 12 19 10 7 7 0 21 21 24 19 30 39 51
62 65 80 83 86 93 98 108 92 105 93 83 76 71 68 37 43 21 66 60 52 54 52 48 32 26 12 15 25 13 14 9 11 8 7 12 8 3 12 21 19 24 33 40 50
59 68 79 79 108 103 92 111 96 108 95 87 82 78 54 42 47 33 54 68 56 57 60 54 24 31 21 12 10 11 11 7 13 10 11 11 16 19 28 21 16 23 29 37 44
65 64 74 98 105 110 103 119 105 109 100 96 88 76 31 53 50 41 42 52 52 51 54 48 32 30 7 17 12 17 10 11 11 19 6 9 30 24 24 19 22 25 30 35 41
62 85 83 107 106 107 127 121 105 102 101 94 93 63 22 53 55 54 43 68 52 45 45 50 36 23 17 24 11 15 18 28 15 10 6 17 18 12 19 25 37 32 33 37 40
54 74 49 106 112 115 115 114 101 111 101 101 76 38 34 54 61 63 60 61 52 44 39 29 17 18 20 28 31 26 34 13 21 7 10 12 34 29 24 17 27 28 34 37 43
50 61 61 110 111 116 107 113 103 78 124 48 76 66 62 59 63 57 71 63 50 55 24 25 19 35 41 37 14 16 17 26 9 7 8 24 35 38 40 35 45 42 35 38 46
49 57 48 92 132 122 129 121 138 69 48 57 93 44 73 88 37 65 86 46 45 38 28 17 40 34 28 24 21 19 19 12 6 6 7 26 42 44 45 45 53 59 57 44 46
53 49 38 110 116 123 123 129 120 79 21 23 88 54 71 91 53 64 90 41 53 33 38 35 20 33 32 31 24 24 22 8 6 3 5 16 38 48 36 49 56 61 59 56 54
49 44 7 123 132 122 121 121 100 98 10 20 28 31 56 63 21 62 73 45 19 48 34 13 21 34 35 38 36 26 15 15 10 5 17 1 19 28 27 26 33 50 60 70 71
39 40 27 36 100 134 105 115 118 75 25 25 15 67 63 59 63 44 62 14 41 32 22 21 28 40 41 41 38 14 26 22 10 8 14 21 15 16 11 21 30 46 52 64 72
24 40 35 15 70 127 122 114 95 19 13 17 21 28 37 25 40 46 26 19 27 32 12 13 13 30 31 25 32 37 22 16 9 9 16 27 20 26 24 30 24 24 37 49 69
24 34 26 11 37 121 131 103 22 31 18 17 22 41 48 28 23 44 29 29 20 22 23 10 14 5 23 27 12 23 31 7 7 9 16 3 21 38 15 16 16 21 26 28 37
23 24 23 15 10 113 124 33 24 15 16 10 44 52 33 47 27 38 36 26 12 26 23 21 14 22 10 20 22 20 21 11 14 12 5 2 22 14 16 25 30 34 47 41 44
26 12 26 10 9 103 90 32 12 34 21 35 50 38 28 25 22 27 39 41 25 26 26 29 18 13 17 13 31 12 15 7 7 4 4 13 18 26 25 29 31 28 24 41 46
28 16 14 11 16 27 37 14 12 28 45 59 45 32 39 46 39 49 48 46 41 28 15 20 12 7 9 16 6 29 31 11 8 12 15 17 16 27 3 12 17 31 43 34 37
30 10 15 5 7 6 25 7 19 56 68 49 45 39 41 62 43 58 59 17 42 26 14 20 6 9 22 26 33 21 21 9 14 10 12 12 18 14 28 25 17 17 15 26 26
9 5 13 12 5 3 17 20 27 50 61 14 18 27 50 51 32 40 43 21 52 48 28 8 11 14 40 4 10 32 25 33 14 17 10 8 21 15 13 10 12 21 29 25 47
10 9 6 9 5 3 17 19 30 55 42 23 19 13 44 42 19 28 29 36 69 50 45 21 11 13 11 8 6 28 24 41 21 6 16 14 21 20 37 35 35 33 37 43 39
8 5 8 2 2 3 15 28 32 29 15 12 20 40 44 32 16 31 32 15 53 46 33 37 6 18 25 14 21 27 33 29 36 15 36 26 46 51 40 37 25 25 26 25 38
4 5 6 4 5 4 3 20 49 27 6 24 15 42 36 20 26 26 19 17 25 40 20 21 22 8 3 11 14 16 39 39 44 57 37 52 50 68 59 33 38 42 46 53 55
5 7 6 4 8 6 2 20 62 24 20 32 31 50 34 32 33 31 27 24 23 14 29 11 6 17 7 9 7 5 40 45 53 56 49 56 43 69 56 30 36 38 43 50 59
12 18 12 5 5 3 5 15 35 31 11 18 42 40 16 26 36 51 48 45 39 42 44 28 14 10 12 13 8 21 46 43 39 52 44 50 71 43 42 27 38 43 54 65 78
Wind_Direction_850mb
244 237 240 238 242 228 225 219 220 216 213 216 208 205 205 202 190 196 203 210 208 192 190 192 178 202 194 190 161 137 167 213 206 167 114 152 194 165 178 136 163 192 173 179 179
245 233 234 239 246 243 221 216 220 212 208 212 212 206 194 200 192 199 209 202 205 206 188 185 184 176 169 175 182 193 209 208 197 132 128 126 213 167 187 159 189 197 192 172 180
247 239 234 238 244 236 217 214 219 211 210 208 203 212 184 175 179 203 199 185 181 178 188 181 174 165 137 157 177 193 209 172 170 118 133 126 117 176 210 210 212 217 191 184 184
246 238 235 233 238 240 224 215 216 207 206 200 197 202 190 162 180 192 192 182 186 167 172 182 178 159 146 174 182 177 200 186 156 144 139 120 106 322 246 269 254 237 203 197 193
252 250 259 235 239 231 224 210 209 207 201 196 197 197 187 191 187 174 184 184 173 173 176 177 173 181 180 198 167 203 168 174 151 165 150 126 91 27 274 290 276 263 219 207 201
256 256 258 228 233 228 219 204 207 205 199 195 193 196 195 202 202 161 182 186 181 179 179 182 186 182 194 202 204 193 175 151 180 183 227 258 239 195 253 300 310 246 227 212 210
250 256 251 228 228 222 220 207 203 204 196 194 192 190 186 182 188 163 188 181 186 191 190 195 188 175 169 158 212 138 163 157 186 195 220 194 240 225 246 275 283 249 235 222 215
245 240 262 224 221 213 210 208 199 205 194 192 185 180 187 187 192 189 165 173 188 198 201 195 184 178 165 144 147 188 217 208 174 186 219 210 255 232 228 228 253 253 238 235 225
261 258 284 221 208 204 195 196 195 199 196 187 181 179 175 190 183 184 176 172 175 187 184 191 184 174 140 176 168 193 213 213 214 193 169 224 267 264 241 238 254 241 236 236 234
274 270 263 212 201 195 192 189 193 191 184 186 177 157 173 186 177 178 179 180 162 162 154 171 168 176 190 197 209 192 213 215 214 149 206 230 263 263 253 249 255 257 242 232 237
267 277 235 199 195 190 200 182 169 179 176 172 167 186 167 163 170 171 173 160 161 166 175 179 184 200 188 206 231 198 209 218 154 171 234 245 262 268 264 253 257 255 249 247 242
262 272 195 189 188 191 182 177 181 190 160 184 178 174 160 163 144 168 170 158 167 177 157 160 211 196 191 180 180 170 187 196 199 155 215 272 268 269 262 252 249 254 250 246 253
268 276 280 195 193 185 180 182 178 167 139 175 167 161 158 169 162 163 167 161 172 168 182 182 193 166 175 186 185 206 210 165 252 100 203 291 273 265 254 245 243 243 249 248 242
271 280 344 186 181 184 190 181 171 163 124 167 174 160 155 155 151 164 170 150 178 185 179 212 148 170 185 195 196 202 189 163 141 214 264 34 281 274 272 267 250 247 242 242 243
264 280 257 212 174 175 181 173 166 158 192 162 172 158 159 162 140 179 167 138 168 171 168 175 164 174 185 188 184 195 169 190 191 263 309 230 272 269 263 271 260 254 246 242 242
261 284 280 198 170 180 181 171 159 179 184 146 149 165 145 160 158 149 167 140 152 147 182 154 197 180 193 167 176 139 122 64 60 232 255 248 229 262 255 257 260 263 261 247 242
214 261 263 294 133 179 169 163 178 200 144 149 159 163 142 152 137 160 163 159 155 144 177 140 169 127 158 141 152 155 145 127 180 194 245 332 216 248 267 252 258 273 279 261 260
152 241 267 251 135 171 172 174 193 133 138 159 154 156 147 148 151 163 158 168 201 188 167 165 198 178 173 180 164 163 167 167 207 207 246 134 236 253 229 259 256 269 259 268 275
161 205 284 238 198 170 169 182 146 146 150 139 147 137 137 146 133 149 185 187 176 183 168 184 178 153 180 147 143 142 200 139 92 44 245 216 261 278 234 251 257 258 265 268 267
169 164 296 280 238 194 182 153 118 146 146 150 145 159 155 165 154 178 183 201 185 189 178 165 126 225 167 129 110 179 146 165 203 209 239 234 264 251 208 215 253 254 257 264 287
173 86 309 238 197 176 178 116 131 156 152 159 159 157 171 164 172 182 183 164 180 170 143 158 108 135 163 206 176 153 180 184 171 217 230 263 249 244 232 239 249 270 275 286 298
129 108 297 199 109 79 162 144 145 149 160 102 148 143 167 159 161 177 185 166 170 167 163 172 116 147 187 52 248 201 194 180 189 195 245 294 269 161 213 220 224 252 287 288 303
114 132 181 41 110 134 131 145 151 155 161 152 145 158 170 166 143 179 176 196 177 174 178 172 137 115 151 231 178 218 207 206 219 77 200 201 255 203 236 262 263 261 281 293 298
132 142 132 155 52 351 131 143 149 149 119 96 124 127 141 165 109 181 163 164 183 184 176 155 144 192 190 195 155 200 206 208 212 225 233 224 254 263 257 256 267 289 296 293 302
103 66 129 86 210 191 351 142 153 162 111 137 143 157 153 152 166 172 152 130 174 186 165 170 204 180 131 130 155 191 194 194 202 222 219 237 230 258 255 265 266 273 277 289 289
98 138 109 64 30 111 278 166 163 156 156 177 156 163 159 155 178 155 156 152 161 170 182 195 216 178 153 111 83 212 208 202 211 225 232 246 253 245 274 272 262 260 272 282 287
113 107 107 48 118 246 182 162 173 144 16 148 146 152 148 142 145 153 161 157 163 173 187 182 150 144 214 133 70 271 224 207 212 222 224 234 243 259 273 267 250 259 261 262 267